Rawlins, WY

9:44 AM MDT on August 28, 2016 (GMT -0600)
Rawlins Municipal

Weather History for KRWL - October, 2013

Change the Weather History Date:

Wednesday, October 9, 2013

  Actual Average Record
Temperature  
Mean Temperature 44 °F 46 °F  
Max Temperature 57 °F 60 °F 77 °F (1996)
Min Temperature 30 °F 32 °F 13 °F (2009)
Degree Days  
Heating Degree Days 21 19  
Month to date heating degree days 195 158  
Since 1 July heating degree days 410 544  
Cooling Degree Days 0 0  
Month to date cooling degree days 0 0  
Year to date cooling degree days 371 186  
Moisture  
Dew Point 34 °F    
Average Humidity 70    
Maximum Humidity 92    
Minimum Humidity 47    
Precipitation  
Precipitation 0.00 in 0.03 in 0.44 in (1960)
Month to date precipitation 0.44 0.26  
Year to date precipitation 6.68 7.78  
Sea Level Pressure  
Sea Level Pressure 29.85 in    
Wind  
Wind Speed 8 mph (ENE)    
Max Wind Speed 23 mph    
Max Gust Speed 25 mph    
Visibility 10 miles    
Events      
T = Trace of Precipitation, MM = Missing Value Source: NWS Daily Summary

Daily Weather History Graph

Daily Weather History Graph

Search for Another Location

Airport or City:

Trip Planner

Search our weather history database for the weather conditions in past years. The results will help you decide how hot, cold, wet, or windy it might be!

Date:

Astronomy

Oct. 09, 2013 Rise Set
Actual Time 7:14 AM MDT 6:36 PM MDT
Civil Twilight 6:46 AM MDT 7:04 PM MDT
Nautical Twilight 6:14 AM MDT 7:36 PM MDT
Astronomical Twilight 5:42 AM MDT 8:08 PM MDT
Moon 12:16 PM MDT (10/9) 10:10 PM MDT (10/9)
Length of Visible Light 12h 17m
Length of Day
11h 21m
Waxing Crescent, 26% of the Moon is Illuminated
Oct 9
Waxing Crescent
Oct 11
First Quarter
Oct 18
Full
Oct 26
Last Quarter
Nov 3
New

Hourly Weather History & Observations

Time (MDT) Temp. Windchill Dew Point Humidity Pressure Visibility Wind Dir Wind Speed Gust Speed Precip Events Conditions
12:53 AM 37.0 °F - 28.9 °F 73% 29.77 in 10.0 mi Calm Calm - N/A   Scattered Clouds
1:53 AM 34.0 °F - 28.9 °F 82% 29.78 in 10.0 mi Calm Calm - N/A   Clear
2:53 AM 41.0 °F 37.1 °F 30.0 °F 65% 29.76 in 10.0 mi NE 5.8 mph - N/A   Clear
3:53 AM 34.0 °F - 28.9 °F 82% 29.80 in 10.0 mi Calm Calm - N/A   Clear
4:53 AM 33.1 °F 30.0 °F 28.9 °F 85% 29.82 in 10.0 mi North 3.5 mph - N/A   Clear
5:53 AM 35.1 °F 32.2 °F 30.9 °F 85% 29.83 in 10.0 mi NE 3.5 mph - N/A   Clear
6:53 AM 30.9 °F - 28.9 °F 92% 29.88 in 10.0 mi Calm Calm - N/A   Partly Cloudy
7:53 AM 37.0 °F - 33.1 °F 86% 29.87 in 10.0 mi Calm Calm - N/A   Overcast
8:53 AM 41.0 °F 34.3 °F 34.0 °F 76% 29.90 in 10.0 mi NE 11.5 mph - N/A   Overcast
9:53 AM 43.0 °F 37.2 °F 34.0 °F 71% 29.90 in 10.0 mi East 10.4 mph - N/A   Overcast
10:53 AM 46.9 °F - 35.1 °F 63% 29.90 in 10.0 mi ENE 11.5 mph - N/A   Clear
11:53 AM 48.9 °F - 36.0 °F 61% 29.91 in 10.0 mi East 9.2 mph - N/A   Scattered Clouds
12:53 PM 52.0 °F - 37.0 °F 57% 29.88 in 10.0 mi ENE 5.8 mph - N/A   Mostly Cloudy
1:53 PM 51.1 °F - 37.0 °F 59% 29.88 in 10.0 mi ENE 12.7 mph - N/A   Overcast
2:53 PM 55.0 °F - 37.0 °F 51% 29.82 in 10.0 mi ENE 11.5 mph - N/A   Clear
3:53 PM 55.0 °F - 35.1 °F 47% 29.84 in 10.0 mi ENE 5.8 mph - N/A   Partly Cloudy
4:53 PM 55.0 °F - 35.1 °F 47% 29.83 in 10.0 mi East 9.2 mph - N/A   Clear
5:53 PM 52.0 °F - 36.0 °F 54% 29.83 in 10.0 mi East 10.4 mph - N/A   Clear
6:53 PM 46.9 °F - 37.9 °F 71% 29.88 in 10.0 mi NE 5.8 mph - N/A   Clear
7:53 PM 45.0 °F 39.3 °F 37.9 °F 76% 29.87 in 10.0 mi ENE 11.5 mph - N/A   Clear
8:53 PM 41.0 °F 33.5 °F 36.0 °F 82% 29.88 in 10.0 mi NE 13.8 mph - N/A   Partly Cloudy
9:53 PM 39.9 °F 32.1 °F 36.0 °F 86% 29.88 in 10.0 mi NE 13.8 mph - N/A   Clear
10:53 PM 39.0 °F 31.4 °F 36.0 °F 89% 29.85 in 10.0 mi NE 12.7 mph - N/A   Clear
11:53 PM 37.9 °F 31.5 °F 36.0 °F 93% 29.83 in 10.0 mi NE 9.2 mph - N/A   Clear